• In Uzbekistan
  • List of Countries
  • For 7 days
  • Water Temperature
  • Satellite Maps
  • Weather Map
  • Weather Widgets
  • user-avatar
    Login

    Hourly Weather San Miguel de Tucumán

    Today, 3 December, Saturday

    Time Temperature Precipitation Wind Pressure Humidity
    00:00 +25°C° 0.3 mm 1 mps 720 mmHg 80%
    01:00 +25°C° 0.3 mm 1 mps 720 mmHg 83%
    02:00 +24°C° 0 mm 1 mps 719 mmHg 88%
    03:00 +24°C° 0 mm 1 mps 720 mmHg 88%
    04:00 +23°C° 0 mm 1 mps 720 mmHg 89%
    05:00 +23°C° 0 mm 1 mps 720 mmHg 89%
    06:00 +25°C° 0 mm 1 mps 720 mmHg 82%
    07:00 +26°C° 0 mm 1 mps 720 mmHg 75%
    08:00 +28°C° 0 mm 1 mps 721 mmHg 65%
    09:00 +30°C° 0 mm 1 mps 720 mmHg 58%
    10:00 +32°C° 0 mm 2 mps 720 mmHg 50%
    11:00 +34°C° 0 mm 2 mps 720 mmHg 42%
    12:00 +35°C° 0 mm 2 mps 719 mmHg 40%
    13:00 +36°C° 0 mm 2 mps 719 mmHg 37%
    14:00 +37°C° 0 mm 3 mps 718 mmHg 35%
    15:00 +37°C° 0 mm 3 mps 718 mmHg 35%
    16:00 +37°C° 0 mm 3 mps 717 mmHg 35%
    17:00 +36°C° 0 mm 3 mps 717 mmHg 36%
    18:00 +34°C° 0 mm 2 mps 717 mmHg 42%
    19:00 +31°C° 0 mm 2 mps 718 mmHg 48%
    20:00 +29°C° 0 mm 1 mps 718 mmHg 54%
    21:00 +28°C° 0 mm 1 mps 718 mmHg 55%
    22:00 +27°C° 0 mm 1 mps 719 mmHg 57%
    23:00 +26°C° 0 mm 1 mps 719 mmHg 58%

    Tomorrow, 4 December, Sunday

    Time Temperature Precipitation Wind Pressure Humidity
    00:00 +26°C° 0 mm 1 mps 719 mmHg 60%
    01:00 +25°C° 0 mm 1 mps 718 mmHg 61%
    02:00 +25°C° 0 mm 1 mps 718 mmHg 63%
    03:00 +25°C° 0 mm 1 mps 718 mmHg 64%
    04:00 +24°C° 0 mm 2 mps 718 mmHg 65%
    05:00 +24°C° 0 mm 2 mps 717 mmHg 66%
    06:00 +26°C° 0 mm 2 mps 718 mmHg 59%
    07:00 +28°C° 0 mm 3 mps 718 mmHg 52%
    08:00 +31°C° 0 mm 3 mps 718 mmHg 45%
    09:00 +33°C° 0 mm 3 mps 718 mmHg 42%
    10:00 +35°C° 0 mm 4 mps 717 mmHg 38%
    11:00 +37°C° 0 mm 4 mps 717 mmHg 34%
    12:00 +39°C° 0 mm 5 mps 716 mmHg 33%
    13:00 +40°C° 0 mm 5 mps 715 mmHg 31%
    14:00 +40°C° 0 mm 5 mps 714 mmHg 30%
    15:00 +40°C° 0 mm 6 mps 713 mmHg 30%
    16:00 +40°C° 0 mm 6 mps 713 mmHg 31%
    17:00 +40°C° 0 mm 6 mps 712 mmHg 31%
    18:00 +36°C° 0 mm 5 mps 712 mmHg 37%
    19:00 +34°C° 0 mm 4 mps 713 mmHg 43%
    20:00 +31°C° 0 mm 3 mps 713 mmHg 48%
    21:00 +30°C° 0.1 mm 3 mps 713 mmHg 51%
    22:00 +29°C° 0.1 mm 3 mps 714 mmHg 53%
    23:00 +29°C° 0.1 mm 3 mps 714 mmHg 56%

    Day after tomorrow, 5 December, Monday

    Time Temperature Precipitation Wind Pressure Humidity
    00:00 +28°C° 0 mm 3 mps 714 mmHg 56%
    01:00 +28°C° 0 mm 3 mps 713 mmHg 56%
    02:00 +27°C° 0 mm 4 mps 713 mmHg 56%
    03:00 +27°C° 0 mm 4 mps 713 mmHg 56%
    04:00 +26°C° 0 mm 3 mps 713 mmHg 56%
    05:00 +26°C° 0 mm 3 mps 713 mmHg 57%
    06:00 +28°C° 0 mm 3 mps 713 mmHg 51%
    07:00 +30°C° 0 mm 3 mps 714 mmHg 45%
    08:00 +33°C° 0 mm 3 mps 714 mmHg 40%
    09:00 +35°C° 0 mm 3 mps 714 mmHg 36%
    10:00 +37°C° 0 mm 2 mps 714 mmHg 32%
    11:00 +39°C° 0 mm 2 mps 714 mmHg 28%
    12:00 +40°C° 0 mm 3 mps 714 mmHg 27%
    13:00 +42°C° 0 mm 3 mps 713 mmHg 25%
    14:00 +42°C° 0 mm 4 mps 713 mmHg 24%
    15:00 +42°C° 0 mm 4 mps 713 mmHg 24%
    16:00 +42°C° 0 mm 3 mps 713 mmHg 25%
    17:00 +40°C° 0 mm 3 mps 713 mmHg 25%
    18:00 +37°C° 0.5 mm 3 mps 713 mmHg 33%
    19:00 +35°C° 0.5 mm 3 mps 714 mmHg 41%
    20:00 +31°C° 0.5 mm 2 mps 714 mmHg 49%
    21:00 +30°C° 0.7 mm 2 mps 715 mmHg 53%
    22:00 +29°C° 0.7 mm 2 mps 715 mmHg 57%
    23:00 +28°C° 0.7 mm 2 mps 716 mmHg 61%

    6 December, Tuesday

    Time Temperature Precipitation Wind Pressure Humidity
    00:00 +27°C° 0.8 mm 2 mps 716 mmHg 64%
    01:00 +27°C° 0.8 mm 2 mps 716 mmHg 67%
    02:00 +26°C° 0.8 mm 2 mps 716 mmHg 70%
    03:00 +26°C° 1 mm 2 mps 716 mmHg 74%
    04:00 +25°C° 1 mm 2 mps 716 mmHg 78%
    05:00 +25°C° 1 mm 1 mps 717 mmHg 82%
    06:00 +26°C° 0.3 mm 2 mps 717 mmHg 79%
    07:00 +27°C° 0.3 mm 3 mps 718 mmHg 75%
    08:00 +28°C° 0.3 mm 4 mps 718 mmHg 72%
    09:00 +29°C° 0.2 mm 4 mps 718 mmHg 70%
    10:00 +30°C° 0.2 mm 3 mps 718 mmHg 68%
    11:00 +30°C° 0.2 mm 3 mps 718 mmHg 66%
    12:00 +30°C° 2.1 mm 3 mps 717 mmHg 66%
    13:00 +31°C° 2.1 mm 3 mps 717 mmHg 65%
    14:00 +31°C° 2.1 mm 3 mps 716 mmHg 65%
    15:00 +31°C° 2.9 mm 3 mps 715 mmHg 66%
    16:00 +30°C° 2.9 mm 3 mps 715 mmHg 67%
    17:00 +30°C° 2.9 mm 3 mps 714 mmHg 68%
    18:00 +29°C° 1 mm 2 mps 715 mmHg 74%
    19:00 +27°C° 1 mm 2 mps 715 mmHg 81%
    20:00 +26°C° 1 mm 2 mps 716 mmHg 87%
    21:00 +25°C° 0.3 mm 2 mps 716 mmHg 87%
    22:00 +25°C° 0.3 mm 1 mps 716 mmHg 87%
    23:00 +25°C° 0.3 mm 1 mps 716 mmHg 87%

    7 December, Wednesday

    Time Temperature Precipitation Wind Pressure Humidity
    00:00 +25°C° 0 mm 1 mps 715 mmHg 87%
    01:00 +24°C° 0 mm 1 mps 715 mmHg 88%
    02:00 +24°C° 0 mm 1 mps 714 mmHg 88%
    03:00 +24°C° 0.1 mm 1 mps 714 mmHg 88%
    04:00 +24°C° 0.1 mm 1 mps 714 mmHg 88%
    05:00 +24°C° 0.1 mm 1 mps 714 mmHg 88%
    06:00 +25°C° 0.2 mm 1 mps 715 mmHg 81%
    07:00 +27°C° 0.2 mm 1 mps 715 mmHg 75%
    08:00 +28°C° 0.2 mm 1 mps 716 mmHg 68%
    09:00 +30°C° 0.1 mm 2 mps 715 mmHg 63%
    10:00 +31°C° 0.1 mm 2 mps 715 mmHg 57%
    11:00 +34°C° 0.1 mm 3 mps 714 mmHg 51%
    12:00 +35°C° 0.5 mm 3 mps 714 mmHg 50%
    13:00 +35°C° 0.5 mm 3 mps 713 mmHg 49%
    14:00 +36°C° 0.5 mm 4 mps 712 mmHg 48%
    15:00 +35°C° 1.4 mm 4 mps 711 mmHg 51%
    16:00 +34°C° 1.4 mm 4 mps 711 mmHg 54%
    17:00 +34°C° 1.4 mm 4 mps 711 mmHg 57%
    18:00 +31°C° 2.9 mm 3 mps 711 mmHg 66%
    19:00 +29°C° 2.9 mm 2 mps 712 mmHg 76%
    20:00 +26°C° 2.9 mm 1 mps 713 mmHg 86%
    21:00 +26°C° 1.2 mm 2 mps 713 mmHg 85%
    22:00 +26°C° 1.2 mm 2 mps 713 mmHg 85%
    23:00 +26°C° 1.2 mm 2 mps 713 mmHg 84%

    8 December, Thursday

    Time Temperature Precipitation Wind Pressure Humidity
    00:00 +25°C° 0 mm 2 mps 713 mmHg 84%
    01:00 +25°C° 0 mm 1 mps 712 mmHg 84%
    02:00 +24°C° 0 mm 1 mps 712 mmHg 84%
    03:00 +24°C° 0.2 mm 2 mps 712 mmHg 83%
    04:00 +24°C° 0.2 mm 2 mps 713 mmHg 81%
    05:00 +24°C° 0.2 mm 3 mps 713 mmHg 80%
    06:00 +25°C° 1.9 mm 3 mps 714 mmHg 80%
    07:00 +25°C° 1.9 mm 4 mps 714 mmHg 79%
    08:00 +26°C° 1.9 mm 4 mps 715 mmHg 79%
    09:00 +27°C° 1 mm 4 mps 715 mmHg 74%
    10:00 +28°C° 1 mm 4 mps 715 mmHg 68%
    11:00 +29°C° 1 mm 4 mps 715 mmHg 62%
    12:00 +29°C° 0.7 mm 5 mps 715 mmHg 62%
    13:00 +30°C° 0.7 mm 6 mps 714 mmHg 61%
    14:00 +30°C° 0.7 mm 6 mps 714 mmHg 61%
    15:00 +29°C° 1 mm 6 mps 713 mmHg 64%
    16:00 +28°C° 1 mm 5 mps 713 mmHg 66%
    17:00 +28°C° 1 mm 5 mps 713 mmHg 69%
    18:00 +26°C° 1 mm 4 mps 713 mmHg 75%
    19:00 +25°C° 1 mm 3 mps 714 mmHg 81%
    20:00 +23°C° 1 mm 2 mps 715 mmHg 87%
    21:00 +23°C° 0.9 mm 2 mps 715 mmHg 88%
    22:00 +23°C° 0.9 mm 2 mps 715 mmHg 88%
    23:00 +23°C° 0.9 mm 2 mps 716 mmHg 89%
    Show more